Weather History for Sisters Island, British Columbia

Change the Weather History Date:

Saturday, November 10, 2012

  Actual Average Record
Temperature  
Mean Temperature 44 °F -  
Max Temperature 47 °F - - ()
Min Temperature 40 °F - - ()
Degree Days  
Heating Degree Days 22    
Moisture  
Dew Point 28 °F    
Average Humidity 56    
Maximum Humidity 70    
Minimum Humidity 43    
Precipitation  
Precipitation 0.00 in - - ()
Sea Level Pressure  
Sea Level Pressure 30.10 in    
Wind  
Wind Speed 9 mph ()    
Max Wind Speed 23 mph    
Max Gust Speed -    
T = Trace of Precipitation, MM = Missing Value Source: Averaged Metar Reports

Daily Weather History Graph

Daily Weather History Graph

Search for Another Location

Airport:

Trip Planner

Search our weather history database for the weather conditions in past years. The results will help you decide how hot, cold, wet, or windy it might be!

Date:

Astronomy

Nov. 10, 2012 Rise Set
Actual Time 7:21 AM PST 4:41 PM PST
Civil Twilight 6:47 AM PST 5:15 PM PST
Nautical Twilight 6:08 AM PST 5:54 PM PST
Astronomical Twilight 5:31 AM PST 6:31 PM PST
Moon 3:15 AM PST (11/10) 2:46 PM PST (11/10)
Length of Visible Light 10h 28m
Length of Day
9h 19m
Waning Crescent, 13% of the Moon is Illuminated
Nov 10
Waning Crescent
Nov 13
New
Nov 20
First Quarter
Nov 28
Full
Dec 6
Last Quarter

Hourly Weather History & Observations

Time (PST) Temp. Windchill Dew Point Humidity Pressure Visibility Wind Dir Wind Speed Gust Speed Precip Events Conditions
12:00 AM 42.6 °F 39.0 °F 21.9 °F 44% 29.99 in - ENE 5.8 mph - N/A   Unknown
1:00 AM 42.6 °F 39.9 °F 24.1 °F 48% 30.00 in - NNE 4.6 mph - N/A   Unknown
2:00 AM 41.9 °F 35.4 °F 25.9 °F 53% 30.01 in - NNW 11.5 mph - N/A   Unknown
3:00 AM 41.4 °F 33.6 °F 27.3 °F 57% 30.02 in - NW 15.0 mph - N/A   Unknown
4:00 AM 41 °F - 27 °F 46% 30.03 in - NW 15.0 mph - -  
4:00 AM 41.2 °F 33.4 °F 27.3 °F 58% 30.03 in - NW 15.0 mph - N/A   Unknown
5:00 AM 40.8 °F 32.3 °F 30.2 °F 66% 30.04 in - NW 17.3 mph - N/A   Unknown
6:00 AM 40.3 °F 31.3 °F 28.2 °F 62% 30.04 in - NW 18.4 mph - N/A   Unknown
8:00 AM 40.5 °F 32.5 °F 27.7 °F 60% 30.07 in - WNW 15.0 mph - N/A   Unknown
9:00 AM 41.7 °F 34.8 °F 26.4 °F 55% 30.08 in - WNW 12.7 mph - N/A   Unknown
10:00 AM 43 °F - 28 °F 44% 30.11 in - NW 9.2 mph - -  
10:00 AM 43.0 °F 37.7 °F 28.4 °F 56% 30.11 in - NW 9.2 mph - N/A   Unknown
11:00 AM 43.2 °F 37.9 °F 27.9 °F 55% 30.13 in - NW 9.2 mph - N/A   Unknown
12:00 PM 45.3 °F 43.0 °F 25.5 °F 46% 30.14 in - WNW 4.6 mph - N/A   Unknown
1:00 PM 47.8 °F - 27.3 °F 45% 30.13 in - NW 2.3 mph - N/A   Unknown
2:00 PM 42.6 °F 40.9 °F 26.8 °F 54% 30.13 in - WSW 3.5 mph - N/A   Unknown
3:00 PM 41.7 °F 39.8 °F 27.0 °F 56% 30.13 in - South 3.5 mph - N/A   Unknown
4:00 PM 42 °F - 27 °F 43% 30.14 in - ENE 2.3 mph - -  
4:00 PM 41.5 °F - 27.1 °F 57% 30.14 in - ENE 2.3 mph - N/A   Unknown
5:00 PM 41.4 °F 38.4 °F 28.9 °F 61% 30.14 in - East 4.6 mph - N/A   Unknown
6:00 PM 40.8 °F 36.2 °F 31.6 °F 70% 30.15 in - East 6.9 mph - N/A   Unknown
7:00 PM 40.6 °F 34.8 °F 30.2 °F 66% 30.15 in - East 9.2 mph - N/A   Unknown
8:00 PM 40.8 °F 35.6 °F 31.8 °F 70% 30.16 in - SSE 8.1 mph - N/A   Unknown
9:00 PM 41.4 °F 34.3 °F 29.8 °F 64% 30.16 in - SE 12.7 mph - N/A   Unknown
10:00 PM 42 °F - 30 °F 52% 30.16 in - SE 16.1 mph - -  
10:00 PM 41.7 °F 33.7 °F 30.4 °F 64% 30.16 in - SE 16.1 mph - N/A   Unknown
11:00 PM 41.7 °F 32.1 °F 27.5 °F 57% 30.16 in - SE 23.0 mph - N/A   Unknown